Regional Weather Roundup
Issued by NWS

Home | Current Version | Previous Version | Graphics & Text | Print | Product List | Glossary Off
Versions: 1 2 3 4 5 6 7 8 9 10 11 12 13 14 15 16 17 18 19 20 21 22 23 24 25 26 27 28 29 30 31 32 33 34 35 36 37 38 39 40 41 42 43 44 45 46 47 48 49 50

000
ASUS43 KDMX 220601
RWRIA

WEATHER ROUNDUP FOR IOWA
NATIONAL WEATHER SERVICE DES MOINES IA
100 AM CDT TUE AUG 22 2017

NOTE: "FAIR" INDICATES FEW OR NO CLOUDS BELOW 12,000 FEET WITH NO
SIGNIFICANT WEATHER AND/OR OBSTRUCTIONS TO VISIBILITY.

* - THESE STATIONS ARE NOT NWS STATIONS...THUS NOT UNDER NWS
QUALITY CONTROL.  THEY ALSO DO NOT REPORT WEATHER SUCH
AS PRECIPITATION OR FOG.

IAZ001>003-012>014-020>022-031>034-043>046-220700-
   NORTHWEST IOWA

CITY           SKY/WX    TMP DP  RH WIND       PRES   REMARKS
CARROLL *      CLOUDY    64  64 100 NW5       29.97R
CHEROKEE *     PTCLDY    62  62 100 CALM      29.99R
DENISON *      CLOUDY    64  63  94 NW5       30.00S
LE MARS *      CLEAR    104 N/A N/A CALM      29.99R
ORANGE CITY *  PTCLDY    63  63 100 CALM      29.99S
SHELDON *      PTCLDY    61  61 100 CALM      29.97R
SIOUX CITY     PTCLDY    63  63 100 NW5       30.00R
6HR MIN TEMP:  63; 6HR MAX TEMP:  67; 6HR PCP:  0.51;

SPENCER        PTCLDY    61  59  93 W3        29.98R
6HR MIN TEMP:  60; 6HR MAX TEMP:  66;

STORM LAKE *   CLOUDY    63  63 100 W8        29.99R FOG
$$

IAZ055>058-069>071-079>083-090>094-220700-
   SOUTHWEST IOWA

CITY           SKY/WX    TMP DP  RH WIND       PRES   REMARKS
ATLANTIC *     CLOUDY    64  64 100 NW7       29.99R
AUDUBON *      CLOUDY    64  61  88 CALM      30.00R
CLARINDA *     CLOUDY    64  64 100 S7        30.02F FOG
COUNCIL BLFS * CLOUDY    64  64 100 CALM      30.02R
CRESTON *      CLOUDY    64  64 100 S13       30.00F
HARLAN  *      CLOUDY    64  64 100 S5        30.03R
LAMONI         LGT RAIN  65  64  97 CALM      30.01S
6HR MIN TEMP:  65; 6HR MAX TEMP:  75; 6HR PCP:  1.13;

RED OAK *      CLOUDY    64  64 100 S9        29.97R
SHENANDOAH *   CLOUDY    64  64 100 SE10G16   30.00F
$$

IAZ047>049-059>061-072>074-084-220700-
   CENTRAL IOWA

CITY           SKY/WX    TMP DP  RH WIND       PRES   REMARKS
AMES           MOCLDY    65  65 100 CALM      29.96F
6HR MIN TEMP:  65; 6HR MAX TEMP:  67; 6HR PCP:  0.02;

ANKENY *       LGT RAIN  66  64  94 S8        29.94F
BOONE *        CLOUDY    64  63  94 W5        29.98R
CHARITON *     LGT RAIN  66  66 100 S7        29.97F
DES MOINES     LGT RAIN  67  65  93 S13       29.94R
6HR MIN TEMP:  66; 6HR MAX TEMP:  68; 6HR PCP:  0.26;

GRINNELL*      LGT RAIN  65  64  94 SW10      29.94S
KNOXVILLE *    CLOUDY    68  64  88 S9        29.94S
MARSHALLTOWN   CLOUDY    65  65 100 NW10      29.97R
6HR MIN TEMP:  65; 6HR MAX TEMP:  67; 6HR PCP:  0.02;

NEWTON *       CLOUDY    66  64  94 SW8       29.97R
PELLA *        LGT RAIN  66  64  95 S6        29.95F
PERRY *          N/A     65  64  98 NW3       29.99R
$$

IAZ004>006-015-016-023>025-035-036-220700-
   NORTH CENTRAL IOWA

CITY           SKY/WX    TMP DP  RH WIND       PRES   REMARKS
ALGONA *       CLOUDY    63  63 100 W6        29.97R
CLARION *      CLOUDY    63  63 100 CALM      29.96S
ESTHERVILLE    CLOUDY    61  61 100 W6        29.96R
6HR MIN TEMP:  61; 6HR MAX TEMP:  65;

FORT DODGE *   CLOUDY    64  61  88 CALM      29.97R
FOREST CITY *    N/A     63  63 100 W5        29.95R
WEBSTER CITY * CLOUDY    63  63 100 SW3       29.95R
IOWA FALLS *     N/A     65  64  96 SW5       29.97S
$$

IAZ007>011-017>019-026>030-037>042-050>054-066-220700-
   NORTHEAST IOWA

CITY           SKY/WX    TMP DP  RH WIND       PRES   REMARKS
CEDAR RAPIDS   CLOUDY    66  66 100 W8        29.94R
6HR MIN TEMP:  65; 6HR MAX TEMP:  76; 6HR PCP:  0.66;

CHARLES CITY * CLOUDY    64  64 100 SW5       29.96R
CLINTON *      CLOUDY    72  70  93 W12       29.88F
DECORAH *      CLOUDY    63  63 100 CALM      29.91S
DUBUQUE        MOCLDY    66  64  93 SW14      29.89R
6HR MIN TEMP:  66; 6HR MAX TEMP:  74; 6HR PCP:  0.10;

MONTICELLO *   CLOUDY    68  66  94 W9        29.91R
OELWEIN *      CLOUDY    64  64 100 NW9       29.95R
WATERLOO       CLOUDY    64  63  96 CALM      29.93R
6HR MIN TEMP:  63; 6HR MAX TEMP:  67; 6HR PCP:  0.38;

$$

IAZ064-065-067-068-078-220700-
   EAST CENTRAL IOWA

CITY           SKY/WX    TMP DP  RH WIND       PRES   REMARKS
DAVENPORT      LGT RAIN  71  65  81 SW15G23   29.89F
6HR MIN TEMP:  71; 6HR MAX TEMP:  78; 6HR PCP: TRACE;

IOWA CITY      CLOUDY    69  65  86 SW8       29.92F
6HR MIN TEMP:  69; 6HR MAX TEMP:  78; 6HR PCP:  0.18;

MUSCATINE *    CLOUDY    70  66  88 SW17      29.90F
QUAD CITIES    LGT RAIN  72  65  78 SW16G25   29.88F
6HR MIN TEMP:  72; 6HR MAX TEMP:  78; 6HR PCP:  0.05;

$$

IAZ062-063-075>077-085>089-095>099-220700-
   SOUTHEAST IOWA

CITY           SKY/WX    TMP DP  RH WIND       PRES   REMARKS
BURLINGTON     TSTM      68  68 100 SW5       29.96F FOG
6HR MIN TEMP:  68; 6HR MAX TEMP:  76; 6HR PCP:  0.27;

FAIRFIELD *    CLOUDY    66  64  94 S9        29.95F
FORT MADISON * RAIN      68  68 100 S5        29.98S
KEOKUK *       RAIN      68  68 100 S5        29.97S
OSKALOOSA *    RAIN      65  64  96 S10       29.96F
OTTUMWA        LGT RAIN  67  66  97 SW9       29.97F
6HR MIN TEMP:  66; 6HR MAX TEMP:  76; 6HR PCP:  0.31;

WASHINGTON *   CLOUDY    68  66  94 SW12      29.93F
$$

ABBREVIATIONS USED IN REMARKS
   TC - TEMPERATURES IN CELSIUS
  WCI - WIND CHILL INDEX
   HX - HEAT INDEX
  VSB - VISIBILITY
$$




USA.gov is the U.S. government's official web portal to all federal, state and local government web resources and services.